STARLINK-31685, 59578

Orbit data source: Space-Track

STARLINK-31685, 59578 is a payload satellite owned by SpaceX/Seattle (US) in LEO that was launched on Tue, 23 Apr 2024 UTC via an FALCON 9 launch vehicle from the Air Force Eastern Test Range (AFETR). Payloads include a variety of satellites, spacecraft, and rockets equipped with specific instruments for various scientific and technological missions. These include communications satellites like Starlink; space stations such as the ISS; scientific satellites like the Hubble; Earth observation satellites from companies like Planet Labs, Umbra, and HawkEye 360; GPS; miniature CubeSats for education and research; and military/defense satellites.

Loading next visibility...
STARLINK-31685 details
Identifier
59578, 2024-076Q
Orbit
LEO
Last TLE update10 hours ago
Origin
Flag of USSpaceX/Seattle (US)
ManufacturerSpaceX/Seattle
MissionOperational spacecraft
Bus & MotorSTARLINK V2M, Unknown motor
Mass730 kg wet, ~700 kg dry
Launch date (UTC)
2024-04-23 (10 months ago)
Launch vehicle
FALCON 9
Launch site
Air Force Eastern Test Range (AFETR)
Object type
Payload
Rocket body
Debris
Shape & HBRUnknown
Radar Cross SectionLarge (>1 m²)

Expand to show TLE details & history

TLE from 10 hours ago
0 STARLINK-31685
1 59578U 24076Q   25040.16667824  .00019679  00000-0  46563-3 0  9993
2 59578  43.0002  76.5484 0001013 225.7493 328.8841 15.41437731 46253
Epoch: 2025-02-09T04:00Z
Definitive object data (Epoch: 2025-02-09T04:00:00.999Z)
Latitude-10.03155°
Longitude67.91366°
Altitude442.89 km
Speed7.648 km/s
True Right ascension17h 49m 41s
True Declination-9° 58' 12"
Sunlit
Object was in daylight at TLE epoch
Visualization TLE readout
Latitude25.85392°
Longitude-94.30111°
Altitude442.459 km
Speed7.65 km/s
Apparent Right ascension05h 55m 11s
Apparent Declination-6° 04' 07"
Sunlit
Object is in full shadow
Visualization observer readout
Local Sidereal Time16:32:12
Azimuth325.663° NNW
Elevation-51.359°
Doppler factor1
Orbital elements
Apogee altitude444.513 km
Perigee altitude443.131 km
Semi-major axis6,821.959 km
Eccentricity0.0001013
Inclination43.0002°
RAAN76.5484°
Arg. of periapsis225.7493°
True anomaly328.8781°
Mean anomaly328.8841°
Eccentric anomaly328.8811°
Mean motion3.85194 °/min
BSTAR0.00046563
Orbital period93.46 mins
Loading maneuver chart data...
Loading historical data...
Loading historical data...
Loading historical data...
Loading historical data...
Loading historical data...
Loading historical data...
Loading historical data...

STARLINK-31685 Visibility forecast

Observer location: undefined°, undefined

Span
Click to sort rows by Start time (UTC) header in descending order
Start Az.
Max El. time (UTC)
Max El. Az.
Max El.
End time (UTC)
End Az.
6 mins2025-02-10 05:48:59.082Z229.992° WSW2025-02-10 05:51:59.082Z157.221° SSE38.176°2025-02-10 05:54:59.082Z79.508° E
5 mins2025-02-10 07:27:59.082Z279.261° WNW2025-02-10 07:29:59.082Z345.449° N39.45°2025-02-10 07:32:59.082Z69.01° E
5 mins2025-02-10 09:05:59.082Z294.207° NW2025-02-10 09:07:59.082Z340.731° N38.785°2025-02-10 09:10:59.082Z86.276° E
5 mins2025-02-10 10:43:59.082Z275.583° WNW2025-02-10 10:45:59.082Z228.648° WSW35.601°2025-02-10 10:48:59.082Z134.85° SE
|